DW0226 Weather Reports


Display with metric or nautical units.
time (UTC)temp
F
wind
direction
speed
MPH
gust
MPH
rain 1hr
in
rain 24hr
in
rain mn
in
humidity
%
barometer
mb
20260504204037 75 194 3.0 8.0 0.00 0.00 0.00 38 1009.5
20260504203025 76 202 6.0 11.0 0.00 0.00 0.00 37 1009.4
20260504202035 77 237 6.0 12.0 0.00 0.00 0.00 35 1009.4
20260504201026 78 231 4.0 9.0 0.00 0.00 0.00 35 1009.4
20260504200035 77 205 3.0 8.0 0.00 0.00 0.00 35 1009.5
20260504195044 77 184 2.0 14.0 0.00 0.00 0.00 37 1009.6
20260504194033 77 260 3.0 11.0 0.00 0.00 0.00 34 1009.8
20260504193028 77 218 3.0 10.0 0.00 0.00 0.00 35 1009.9
20260504192035 77 258 4.0 9.0 0.00 0.00 0.00 34 1009.9
20260504191022 77 252 6.0 10.0 0.00 0.00 0.00 35 1010.2
20260504190029 75 103 2.0 14.0 0.00 0.00 0.00 38 1010.4
20260504185023 76 207 6.0 13.0 0.00 0.00 0.00 38 1010.5
20260504184030 75 197 4.0 7.0 0.00 0.00 0.00 37 1010.7
20260504183041 75 265 5.0 12.0 0.00 0.00 0.00 39 1010.7
20260504182030 75 137 5.0 9.0 0.00 0.00 0.00 38 1011.0
20260504181021 74 243 6.0 10.0 0.00 0.00 0.00 37 1011.1
20260504180030 74 166 4.0 10.0 0.00 0.00 0.00 40 1011.3
20260504175019 74 161 4.0 9.0 0.00 0.00 0.00 38 1011.4
20260504174025 73 269 5.0 9.0 0.00 0.00 0.00 38 1011.4
20260504173037 73 209 4.0 9.0 0.00 0.00 0.00 40 1011.5
20260504172023 72 210 3.0 8.0 0.00 0.00 0.00 37 1011.7
20260504171030 72 256 4.0 11.0 0.00 0.00 0.00 41 1011.9
20260504151032 66 254 1.0 5.0 0.00 0.00 0.00 49 1013.1
20260504141027 62 298 4.0 10.0 0.00 0.00 0.00 56 1013.4
20260504081027 52 139 1.0 2.0 0.00 0.00 0.00 72 1014.6
20260504045023 44 77 0.0 1.0 0.00 0.00 0.00 88 1014.7
20260504044030 44 84 2.0 3.0 0.00 0.00 0.00 88 1014.8
20260504043020 43 220 0.0 2.0 0.00 0.00 0.00 88 1014.7
20260504042026 43 220 0.0 2.0 0.00 0.00 0.00 88 1014.7
20260504041056 42 220 0.0 2.0 0.00 0.00 0.00 87 1014.7
20260504040045 42 220 0.0 1.0 0.00 0.00 0.00 86 1014.5
20260504035029 42 220 0.0 2.0 0.00 0.00 0.00 86 1014.6
20260504034036 42 220 0.0 0.0 0.00 0.00 0.00 85 1014.6
20260504033028 43 220 0.0 0.0 0.00 0.00 0.00 85 1014.6
20260504032036 43 220 0.0 2.0 0.00 0.00 0.00 84 1014.6
20260504031020 43 220 0.0 1.0 0.00 0.00 0.00 82 1014.4
20260504030029 44 220 0.0 1.0 0.00 0.00 0.00 83 1014.4
20260504025040 44 220 1.0 2.0 0.00 0.00 0.00 82 1014.4
20260504024025 44 220 0.0 1.0 0.00 0.00 0.00 80 1014.4
20260504023037 44 220 0.0 0.0 0.00 0.00 0.00 79 1014.5
20260504022045 44 220 0.0 1.0 0.00 0.00 0.00 78 1014.5
20260504021035 45 220 0.0 1.0 0.00 0.00 0.00 77 1014.4
20260504020023 45 220 0.0 1.0 0.00 0.00 0.00 77 1014.3
20260504015050 45 220 0.0 2.0 0.00 0.00 0.00 77 1014.2
20260504014018 46 220 1.0 2.0 0.00 0.00 0.00 75 1014.2
20260504013030 46 220 1.0 2.0 0.00 0.00 0.00 74 1014.2
20260504012019 47 220 1.0 2.0 0.00 0.00 0.00 73 1014.2
20260504011026 48 220 0.0 1.0 0.00 0.00 0.00 72 1014.1
20260504010053 48 220 0.0 2.0 0.00 0.00 0.00 70 1014.0
20260504005039 49 220 1.0 2.0 0.00 0.00 0.00 68 1013.9
20260504004032 50 220 1.0 2.0 0.00 0.00 0.00 66 1013.9
20260504003020 51 220 0.0 2.0 0.00 0.00 0.00 63 1013.7
20260504002029 53 220 0.0 2.0 0.00 0.00 0.00 61 1013.6
20260504001036 54 220 0.0 2.0 0.00 0.00 0.00 57 1013.6
20260504000046 56 221 1.0 2.0 0.00 0.00 0.00 54 1013.4
20260503235039 58 215 1.0 2.0 0.00 0.00 0.00 51 1013.4
20260503234027 60 217 1.0 2.0 0.00 0.00 0.00 48 1013.2
20260503233035 61 211 0.0 2.0 0.00 0.00 0.00 43 1013.2
20260503232021 61 263 0.0 3.0 0.00 0.00 0.00 41 1013.1
20260503231036 61 269 2.0 6.0 0.00 0.00 0.00 40 1013.1
20260503230024 61 259 3.0 6.0 0.00 0.00 0.00 38 1013.2
20260503225031 61 258 6.0 11.0 0.00 0.00 0.00 38 1013.2
20260503224021 62 292 3.0 7.0 0.00 0.00 0.00 40 1013.3
20260503223031 62 248 4.0 11.0 0.00 0.00 0.00 39 1013.4
20260503222020 62 272 4.0 11.0 0.00 0.00 0.00 37 1013.3
20260503221029 62 275 7.0 16.0 0.00 0.00 0.00 36 1013.5
20260503220020 62 290 3.0 10.0 0.00 0.00 0.00 38 1013.4
20260503215026 62 267 6.0 11.0 0.00 0.00 0.00 37 1013.5
20260503214054 62 250 5.0 11.0 0.00 0.00 0.00 38 1013.4
20260503213024 62 286 8.0 12.0 0.00 0.00 0.00 37 1013.4
20260503212030 62 264 7.0 11.0 0.00 0.00 0.00 37 1013.5
20260503211025 62 275 7.0 14.0 0.00 0.00 0.00 38 1013.3
20260503210035 62 245 5.0 15.0 0.00 0.00 0.00 41 1013.5
20260503205021 62 279 5.0 15.0 0.00 0.00 0.00 38 1013.5